VOZ717 YPAD-YPPH

Flight info

Callsign VOZ717
Flight time 3h 1m
Altitude 36000
Route DCT AREPA H54 KAMBI Q32 NODEV Q10 MALUP Q158 KABLI DCT
Aircraft B738/M-SADE3GHIM1RWZ/LB1

Departure

Time 2026-04-27 08:04
Airport Adelaide International Airport (YPAD)

Arrival

Time 2026-04-27 11:06
Airport Perth International Airport (YPPH)
Time Latitude Longitude Altitude Speed Heading
2026-04-27 07:18 -34.93756 138.54104 25 ft 0 kts 320°
2026-04-27 07:58 -34.93761 138.54110 28 ft 4 kts 320°
2026-04-27 07:58 -34.93782 138.54130 28 ft 4 kts 319°
2026-04-27 07:59 -34.93800 138.54153 30 ft 4 kts 295°
2026-04-27 07:59 -34.93794 138.54179 30 ft 0 kts 216°
2026-04-27 08:01 -34.93795 138.54178 25 ft 1 kts 216°
2026-04-27 08:02 -34.93810 138.54165 26 ft 5 kts 216°
2026-04-27 08:02 -34.93852 138.54135 26 ft 9 kts 197°
2026-04-27 08:02 -34.93912 138.54159 26 ft 10 kts 142°
2026-04-27 08:02 -34.93971 138.54216 27 ft 11 kts 140°
2026-04-27 08:03 -34.94036 138.54271 27 ft 12 kts 156°
2026-04-27 08:03 -34.94113 138.54251 28 ft 10 kts 224°
2026-04-27 08:03 -34.94162 138.54181 27 ft 12 kts 230°
2026-04-27 08:03 -34.94217 138.54101 25 ft 14 kts 229°
2026-04-27 08:04 -34.94374 138.53875 25 ft 68 kts 230°
2026-04-27 08:04 -34.94830 138.53213 26 ft 133 kts 230°
2026-04-27 08:04 -34.95522 138.52214 305 ft 163 kts 230°
2026-04-27 08:04 -34.96252 138.51129 1064 ft 169 kts 227°
2026-04-27 08:05 -34.97035 138.49989 1619 ft 185 kts 226°
2026-04-27 08:05 -34.97897 138.48743 2143 ft 200 kts 227°
2026-04-27 08:05 -34.98826 138.47394 2651 ft 214 kts 229°
2026-04-27 08:05 -34.99806 138.45967 3126 ft 224 kts 230°
2026-04-27 08:06 -35.00826 138.44477 3598 ft 234 kts 231°
2026-04-27 08:06 -35.01895 138.42915 4151 ft 244 kts 232°
2026-04-27 08:06 -35.02974 138.41339 5030 ft 240 kts 233°
2026-04-27 08:06 -35.04025 138.39772 5840 ft 239 kts 240°
2026-04-27 08:07 -35.04552 138.37898 6542 ft 231 kts 274°
2026-04-27 08:07 -35.04202 138.36028 7018 ft 239 kts 302°
2026-04-27 08:07 -35.03078 138.34429 7294 ft 258 kts 319°
2026-04-27 08:07 -35.01675 138.33006 7869 ft 267 kts 322°
2026-04-27 08:08 -35.00209 138.31566 8534 ft 273 kts 322°
2026-04-27 08:08 -34.98717 138.30084 9162 ft 282 kts 322°
2026-04-27 08:08 -34.97168 138.28537 9741 ft 292 kts 323°
2026-04-27 08:08 -34.95384 138.27332 10311 ft 298 kts 341°
2026-04-27 08:09 -34.93383 138.26451 10619 ft 317 kts 342°
2026-04-27 08:09 -34.91244 138.25535 10943 ft 333 kts 342°
2026-04-27 08:09 -34.89043 138.24581 11553 ft 338 kts 341°
2026-04-27 08:09 -34.86826 138.23605 12263 ft 340 kts 341°
2026-04-27 08:10 -34.84598 138.22612 12958 ft 342 kts 340°
2026-04-27 08:10 -34.82351 138.21604 13622 ft 346 kts 340°
2026-04-27 08:10 -34.80080 138.20585 14258 ft 349 kts 340°
2026-04-27 08:10 -34.77793 138.19546 14852 ft 352 kts 336°
2026-04-27 08:11 -34.75729 138.17935 15397 ft 356 kts 315°
2026-04-27 08:11 -34.74195 138.15575 16006 ft 358 kts 304°
2026-04-27 08:11 -34.72799 138.13051 16582 ft 362 kts 303°
2026-04-27 08:11 -34.71409 138.10481 17140 ft 366 kts 303°
2026-04-27 08:12 -34.70002 138.07890 17704 ft 369 kts 303°
2026-04-27 08:12 -34.68570 138.05276 18285 ft 372 kts 303°
2026-04-27 08:12 -34.67119 138.02650 18787 ft 376 kts 303°
2026-04-27 08:12 -34.65653 138.00011 19290 ft 379 kts 303°
2026-04-27 08:13 -34.64172 137.97355 19789 ft 381 kts 303°
2026-04-27 08:13 -34.62680 137.94682 20288 ft 384 kts 303°
2026-04-27 08:13 -34.61176 137.91990 20784 ft 386 kts 303°
2026-04-27 08:13 -34.59681 137.89319 21283 ft 389 kts 302°
2026-04-27 08:14 -34.58161 137.86590 21761 ft 391 kts 300°
2026-04-27 08:14 -34.57059 137.83589 22188 ft 391 kts 282°
2026-04-27 08:14 -34.56501 137.80362 22702 ft 391 kts 279°
2026-04-27 08:14 -34.55982 137.77069 23179 ft 394 kts 279°
2026-04-27 08:15 -34.55474 137.73792 23620 ft 397 kts 279°
2026-04-27 08:15 -34.54963 137.70533 24032 ft 399 kts 279°
2026-04-27 08:15 -34.54435 137.67220 24444 ft 401 kts 279°
2026-04-27 08:15 -34.53898 137.63904 24865 ft 402 kts 279°
2026-04-27 08:16 -34.53352 137.60573 25252 ft 404 kts 279°
2026-04-27 08:16 -34.52800 137.57227 25639 ft 406 kts 279°
2026-04-27 08:16 -34.52242 137.53867 26023 ft 407 kts 280°
2026-04-27 08:16 -34.51680 137.50494 26409 ft 409 kts 279°
2026-04-27 08:17 -34.51114 137.47110 26793 ft 410 kts 279°
2026-04-27 08:17 -34.50547 137.43718 27163 ft 412 kts 279°
2026-04-27 08:17 -34.49975 137.40309 27524 ft 413 kts 279°
2026-04-27 08:17 -34.49401 137.36886 27873 ft 415 kts 279°
2026-04-27 08:18 -34.48822 137.33447 28220 ft 417 kts 279°
2026-04-27 08:18 -34.48241 137.29994 28565 ft 419 kts 279°
2026-04-27 08:18 -34.47656 137.26528 28900 ft 421 kts 279°
2026-04-27 08:18 -34.47067 137.23048 29233 ft 422 kts 279°
2026-04-27 08:19 -34.46476 137.19556 29551 ft 424 kts 279°
2026-04-27 08:19 -34.45881 137.16050 29864 ft 426 kts 279°
2026-04-27 08:19 -34.45282 137.12530 30170 ft 427 kts 279°
2026-04-27 08:19 -34.44680 137.08997 30437 ft 429 kts 279°
2026-04-27 08:20 -34.44084 137.05503 30674 ft 431 kts 279°
2026-04-27 08:20 -34.43475 137.01937 30871 ft 433 kts 279°
2026-04-27 08:20 -34.42861 136.98353 31088 ft 436 kts 279°
2026-04-27 08:20 -34.42244 136.94751 31293 ft 438 kts 279°
2026-04-27 08:21 -34.41622 136.91133 31503 ft 440 kts 279°
2026-04-27 08:21 -34.40996 136.87499 31699 ft 442 kts 279°
2026-04-27 08:21 -34.40366 136.83848 31885 ft 444 kts 278°
2026-04-27 08:21 -34.39732 136.80181 32087 ft 446 kts 278°
2026-04-27 08:22 -34.39094 136.76499 32269 ft 448 kts 278°
2026-04-27 08:22 -34.38453 136.72801 32464 ft 450 kts 278°
2026-04-27 08:22 -34.37808 136.69090 32637 ft 451 kts 278°
2026-04-27 08:22 -34.37159 136.65364 32823 ft 453 kts 278°
2026-04-27 08:23 -34.36507 136.61633 33085 ft 453 kts 278°
2026-04-27 08:23 -34.35855 136.57910 33363 ft 452 kts 278°
2026-04-27 08:23 -34.35203 136.54190 33595 ft 452 kts 278°
2026-04-27 08:23 -34.34550 136.50466 33818 ft 453 kts 278°
2026-04-27 08:24 -34.33895 136.46741 34045 ft 453 kts 278°
2026-04-27 08:24 -34.33239 136.43020 34294 ft 452 kts 278°
2026-04-27 08:24 -34.32583 136.39307 34534 ft 451 kts 278°
2026-04-27 08:24 -34.31928 136.35605 34786 ft 449 kts 278°
2026-04-27 08:25 -34.31276 136.31926 35042 ft 447 kts 278°
2026-04-27 08:25 -34.30624 136.28253 35277 ft 446 kts 278°
2026-04-27 08:25 -34.29973 136.24591 35516 ft 445 kts 278°
2026-04-27 08:25 -34.29322 136.20939 35741 ft 443 kts 278°
2026-04-27 08:26 -34.28673 136.17299 35975 ft 442 kts 278°
2026-04-27 08:26 -34.28025 136.13672 36202 ft 441 kts 278°
2026-04-27 08:26 -34.26722 136.06398 36242 ft 443 kts 278°
2026-04-27 08:27 -34.25427 135.99201 36232 ft 439 kts 278°
2026-04-27 08:27 -34.24130 135.92025 36232 ft 435 kts 278°
2026-04-27 08:28 -34.22840 135.84905 36236 ft 432 kts 278°
2026-04-27 08:28 -34.21554 135.77823 36238 ft 431 kts 278°
2026-04-27 08:29 -34.20265 135.70756 36238 ft 431 kts 278°
2026-04-27 08:29 -34.18972 135.63687 36235 ft 432 kts 278°
2026-04-27 08:30 -34.17667 135.56578 36233 ft 434 kts 278°
2026-04-27 08:30 -34.16353 135.49447 36234 ft 436 kts 278°
2026-04-27 08:31 -34.15029 135.42287 36230 ft 438 kts 278°
2026-04-27 08:31 -34.13702 135.35110 36224 ft 439 kts 277°
2026-04-27 08:32 -34.13141 135.29068 36233 ft 435 kts 270°
2026-04-27 08:32 -34.12760 135.20548 36224 ft 435 kts 269°
2026-04-27 08:33 -34.12432 135.13314 36222 ft 434 kts 270°
2026-04-27 08:33 -34.12073 135.06042 36222 ft 433 kts 270°
2026-04-27 08:34 -34.11760 134.99968 36223 ft 432 kts 270°
2026-04-27 08:34 -34.11383 134.92786 36223 ft 431 kts 270°
2026-04-27 08:35 -34.11000 134.85578 36225 ft 430 kts 270°
2026-04-27 08:35 -34.10614 134.78383 36227 ft 429 kts 270°
2026-04-27 08:36 -34.10226 134.71222 36229 ft 428 kts 270°
2026-04-27 08:36 -34.09834 134.64058 36227 ft 427 kts 270°
2026-04-27 08:37 -34.09438 134.56911 36229 ft 427 kts 270°
2026-04-27 08:37 -34.09039 134.49766 36233 ft 427 kts 270°
2026-04-27 08:38 -34.08635 134.42628 36234 ft 427 kts 270°
2026-04-27 08:38 -34.08227 134.35475 36233 ft 428 kts 271°
2026-04-27 08:39 -34.07814 134.28317 36236 ft 428 kts 271°
2026-04-27 08:39 -34.07396 134.21151 36229 ft 428 kts 271°
2026-04-27 08:40 -34.06977 134.14029 36234 ft 429 kts 271°
2026-04-27 08:40 -34.06550 134.06857 36230 ft 429 kts 271°
2026-04-27 08:41 -34.06120 133.99686 36228 ft 429 kts 271°
2026-04-27 08:41 -34.05685 133.92520 36233 ft 428 kts 271°
2026-04-27 08:42 -34.05247 133.85362 36238 ft 428 kts 271°
2026-04-27 08:42 -34.04805 133.78223 36243 ft 427 kts 272°
2026-04-27 08:43 -34.04360 133.71082 36235 ft 426 kts 272°
2026-04-27 08:43 -34.03912 133.63965 36236 ft 425 kts 272°
2026-04-27 08:44 -34.03460 133.56866 36231 ft 424 kts 272°
2026-04-27 08:44 -34.03006 133.49784 36235 ft 423 kts 272°
2026-04-27 08:45 -34.02549 133.42719 36244 ft 422 kts 272°
2026-04-27 08:45 -34.02092 133.35717 36235 ft 421 kts 272°
2026-04-27 08:46 -34.01629 133.28683 36233 ft 421 kts 272°
2026-04-27 08:46 -34.01162 133.21667 36240 ft 420 kts 272°
2026-04-27 08:47 -34.00692 133.14643 36238 ft 420 kts 272°
2026-04-27 08:47 -34.00218 133.07630 36235 ft 420 kts 273°
2026-04-27 08:48 -33.99740 133.00626 36237 ft 420 kts 273°
2026-04-27 08:48 -33.99258 132.93610 36236 ft 420 kts 273°
2026-04-27 08:49 -33.98772 132.86589 36234 ft 421 kts 273°
2026-04-27 08:49 -33.98280 132.79563 36234 ft 421 kts 273°
2026-04-27 08:50 -33.97785 132.72532 36235 ft 421 kts 273°
2026-04-27 08:50 -33.97285 132.65497 36234 ft 422 kts 273°
2026-04-27 08:51 -33.96781 132.58458 36232 ft 422 kts 273°
2026-04-27 08:51 -33.96273 132.51420 36233 ft 422 kts 274°
2026-04-27 08:52 -33.95761 132.44384 36230 ft 421 kts 274°
2026-04-27 08:52 -33.95245 132.37354 36231 ft 421 kts 274°
2026-04-27 08:53 -33.94726 132.30340 36234 ft 421 kts 274°
2026-04-27 08:53 -33.94207 132.23367 36233 ft 420 kts 274°
2026-04-27 08:54 -33.93681 132.16368 36229 ft 419 kts 274°
2026-04-27 08:54 -33.93153 132.09381 36231 ft 419 kts 274°
2026-04-27 08:55 -33.92621 132.02408 36229 ft 418 kts 274°
2026-04-27 08:55 -33.92087 131.95448 36229 ft 417 kts 274°
2026-04-27 08:56 -33.91550 131.88511 36231 ft 416 kts 274°
2026-04-27 08:56 -33.91010 131.81580 36231 ft 415 kts 274°
2026-04-27 08:57 -33.90194 131.71212 36227 ft 414 kts 274°
2026-04-27 08:58 -33.89647 131.64315 36224 ft 414 kts 274°
2026-04-27 08:58 -33.89098 131.57429 36225 ft 413 kts 274°
2026-04-27 08:59 -33.88545 131.50552 36227 ft 413 kts 274°
2026-04-27 08:59 -33.87983 131.43682 36225 ft 412 kts 274°
2026-04-27 09:00 -33.87414 131.36818 36227 ft 412 kts 274°
2026-04-27 09:00 -33.86847 131.30005 36226 ft 412 kts 274°
2026-04-27 09:01 -33.86273 131.23148 36222 ft 412 kts 274°
2026-04-27 09:01 -33.85696 131.16297 36228 ft 411 kts 274°
2026-04-27 09:02 -33.85115 131.09451 36231 ft 411 kts 274°
2026-04-27 09:02 -33.84531 131.02607 36222 ft 411 kts 274°
2026-04-27 09:03 -33.83944 130.95766 36224 ft 411 kts 274°
2026-04-27 09:03 -33.83352 130.88931 36221 ft 411 kts 274°
2026-04-27 09:04 -33.82759 130.82111 36220 ft 410 kts 274°
2026-04-27 09:04 -33.82161 130.75294 36218 ft 410 kts 274°
2026-04-27 09:05 -33.81561 130.68489 36216 ft 409 kts 275°
2026-04-27 09:05 -33.80959 130.61700 36216 ft 408 kts 275°
2026-04-27 09:06 -33.80354 130.54928 36215 ft 407 kts 275°
2026-04-27 09:06 -33.79748 130.48176 36212 ft 406 kts 275°
2026-04-27 09:07 -33.79139 130.41444 36212 ft 404 kts 275°
2026-04-27 09:07 -33.78528 130.34730 36210 ft 403 kts 275°
2026-04-27 09:08 -33.77915 130.28032 36209 ft 403 kts 275°
2026-04-27 09:08 -33.77304 130.21392 36210 ft 402 kts 275°
2026-04-27 09:09 -33.76686 130.14715 36209 ft 402 kts 275°
2026-04-27 09:09 -33.76064 130.08041 36207 ft 402 kts 275°
2026-04-27 09:10 -33.75439 130.01371 36206 ft 402 kts 275°
2026-04-27 09:10 -33.74809 129.94688 36206 ft 403 kts 275°
2026-04-27 09:11 -33.74174 129.87996 36204 ft 403 kts 275°
2026-04-27 09:11 -33.73534 129.81287 36205 ft 404 kts 276°
2026-04-27 09:12 -33.72890 129.74577 36208 ft 405 kts 276°
2026-04-27 09:12 -33.72242 129.67860 36208 ft 405 kts 276°
2026-04-27 09:13 -33.71590 129.61140 36207 ft 405 kts 276°
2026-04-27 09:13 -33.70934 129.54421 36208 ft 405 kts 276°
2026-04-27 09:14 -33.70275 129.47707 36206 ft 405 kts 276°
2026-04-27 09:14 -33.69614 129.41007 36206 ft 404 kts 276°
2026-04-27 09:15 -33.68949 129.34310 36207 ft 404 kts 276°
2026-04-27 09:15 -33.68282 129.27624 36207 ft 403 kts 276°
2026-04-27 09:16 -33.67616 129.20993 36206 ft 402 kts 276°
2026-04-27 09:16 -33.66944 129.14329 36208 ft 402 kts 277°
2026-04-27 09:17 -33.66268 129.07674 36203 ft 401 kts 277°
2026-04-27 09:17 -33.65590 129.01022 36202 ft 401 kts 277°
2026-04-27 09:18 -33.64909 128.94384 36200 ft 401 kts 277°
2026-04-27 09:18 -33.64225 128.87750 36202 ft 400 kts 277°
2026-04-27 09:19 -33.63537 128.81119 36202 ft 400 kts 277°
2026-04-27 09:19 -33.62846 128.74491 36200 ft 401 kts 277°
2026-04-27 09:20 -33.62156 128.67902 36200 ft 401 kts 277°
2026-04-27 09:20 -33.61457 128.61266 36197 ft 401 kts 277°
2026-04-27 09:21 -33.60754 128.54626 36196 ft 401 kts 278°
2026-04-27 09:21 -33.60048 128.47988 36195 ft 402 kts 278°
2026-04-27 09:22 -33.59335 128.41329 36192 ft 402 kts 278°
2026-04-27 09:22 -33.58620 128.34677 36192 ft 403 kts 278°
2026-04-27 09:23 -33.57899 128.28010 36193 ft 403 kts 278°
2026-04-27 09:23 -33.57174 128.21335 36187 ft 404 kts 278°
2026-04-27 09:24 -33.56445 128.14652 36188 ft 404 kts 278°
2026-04-27 09:24 -33.55836 128.09096 36183 ft 405 kts 278°
2026-04-27 09:25 -33.54973 128.01263 36184 ft 405 kts 278°
2026-04-27 09:25 -33.54358 127.95698 36184 ft 406 kts 278°
2026-04-27 09:26 -33.53618 127.88995 36183 ft 406 kts 279°
2026-04-27 09:26 -33.52752 127.81194 36180 ft 406 kts 279°
2026-04-27 09:27 -33.52126 127.75578 36181 ft 406 kts 279°
2026-04-27 09:27 -33.51380 127.68910 36183 ft 406 kts 279°
2026-04-27 09:28 -33.50624 127.62194 36180 ft 406 kts 279°
2026-04-27 09:28 -33.49865 127.55486 36177 ft 406 kts 279°
2026-04-27 09:29 -33.49101 127.48770 36176 ft 406 kts 279°
2026-04-27 09:29 -33.48336 127.42069 36177 ft 406 kts 279°
2026-04-27 09:30 -33.47565 127.35360 36176 ft 407 kts 279°
2026-04-27 09:30 -33.46791 127.28650 36177 ft 407 kts 279°
2026-04-27 09:31 -33.46013 127.21938 36175 ft 407 kts 279°
2026-04-27 09:31 -33.45231 127.15224 36178 ft 407 kts 279°
2026-04-27 09:32 -33.44445 127.08509 36170 ft 407 kts 279°
2026-04-27 09:32 -33.43656 127.01802 36172 ft 407 kts 280°
2026-04-27 09:33 -33.42863 126.95087 36171 ft 407 kts 280°
2026-04-27 09:33 -33.42071 126.88419 36168 ft 407 kts 280°
2026-04-27 09:34 -33.41271 126.81708 36170 ft 407 kts 280°
2026-04-27 09:34 -33.40466 126.74997 36171 ft 407 kts 280°
2026-04-27 09:35 -33.39659 126.68287 36173 ft 407 kts 280°
2026-04-27 09:35 -33.38847 126.61579 36164 ft 407 kts 280°
2026-04-27 09:36 -33.38031 126.54863 36167 ft 407 kts 280°
2026-04-27 09:36 -33.37212 126.48156 36170 ft 407 kts 280°
2026-04-27 09:37 -33.36391 126.41458 36164 ft 407 kts 280°
2026-04-27 09:37 -33.35565 126.34754 36161 ft 407 kts 281°
2026-04-27 09:38 -33.34734 126.28045 36160 ft 407 kts 281°
2026-04-27 09:38 -33.33902 126.21352 36162 ft 407 kts 281°
2026-04-27 09:39 -33.33071 126.14699 36161 ft 407 kts 281°
2026-04-27 09:39 -33.32232 126.08003 36158 ft 407 kts 281°
2026-04-27 09:40 -33.31388 126.01311 36151 ft 407 kts 281°
2026-04-27 09:40 -33.30542 125.94623 36150 ft 407 kts 281°
2026-04-27 09:41 -33.29692 125.87941 36146 ft 406 kts 281°
2026-04-27 09:41 -33.28840 125.81264 36151 ft 406 kts 281°
2026-04-27 09:42 -33.27986 125.74602 36146 ft 406 kts 281°
2026-04-27 09:42 -33.27127 125.67932 36148 ft 405 kts 281°
2026-04-27 09:43 -33.26266 125.61278 36145 ft 405 kts 281°
2026-04-27 09:43 -33.25408 125.54676 36144 ft 405 kts 281°
2026-04-27 09:44 -33.24542 125.48040 36139 ft 404 kts 281°
2026-04-27 09:44 -33.23674 125.41409 36141 ft 403 kts 281°
2026-04-27 09:45 -33.22805 125.34807 36139 ft 402 kts 281°
2026-04-27 09:45 -33.21933 125.28203 36135 ft 402 kts 282°
2026-04-27 09:46 -33.21059 125.21621 36135 ft 401 kts 282°
2026-04-27 09:46 -33.20184 125.15052 36134 ft 400 kts 282°
2026-04-27 09:47 -33.19308 125.08499 36129 ft 399 kts 282°
2026-04-27 09:47 -33.18435 125.01998 36128 ft 399 kts 282°
2026-04-27 09:48 -33.17551 124.95462 36128 ft 398 kts 282°
2026-04-27 09:48 -33.16659 124.88939 36123 ft 398 kts 282°
2026-04-27 09:49 -33.15765 124.82415 36118 ft 398 kts 282°
2026-04-27 09:49 -33.14870 124.75910 36117 ft 398 kts 282°
2026-04-27 09:50 -33.13971 124.69399 36114 ft 398 kts 282°
2026-04-27 09:50 -33.13069 124.62887 36115 ft 398 kts 282°
2026-04-27 09:51 -33.12163 124.56372 36112 ft 398 kts 282°
2026-04-27 09:51 -33.11252 124.49852 36111 ft 399 kts 282°
2026-04-27 09:52 -33.10343 124.43366 36103 ft 399 kts 282°
2026-04-27 09:52 -33.09422 124.36827 36108 ft 400 kts 282°
2026-04-27 09:53 -33.08497 124.30278 36106 ft 401 kts 282°
2026-04-27 09:53 -33.07567 124.23721 36104 ft 401 kts 282°
2026-04-27 09:54 -33.06632 124.17154 36107 ft 402 kts 282°
2026-04-27 09:54 -33.05692 124.10579 36103 ft 403 kts 283°
2026-04-27 09:55 -33.04748 124.04000 36102 ft 403 kts 283°
2026-04-27 09:55 -33.03325 123.94131 36102 ft 403 kts 283°
2026-04-27 09:56 -33.02373 123.87561 36101 ft 403 kts 283°
2026-04-27 09:56 -33.01417 123.80988 36102 ft 402 kts 283°
2026-04-27 09:57 -33.00458 123.74419 36098 ft 402 kts 283°
2026-04-27 09:57 -32.99496 123.67853 36101 ft 402 kts 283°
2026-04-27 09:58 -32.98530 123.61288 36105 ft 402 kts 283°
2026-04-27 09:58 -32.97560 123.54723 36102 ft 402 kts 283°
2026-04-27 09:59 -32.96594 123.48204 36102 ft 402 kts 283°
2026-04-27 09:59 -32.95618 123.41644 36103 ft 402 kts 283°
2026-04-27 10:00 -32.94639 123.35087 36106 ft 402 kts 283°
2026-04-27 10:00 -32.93656 123.28532 36103 ft 402 kts 283°
2026-04-27 10:01 -32.93163 123.25253 35961 ft 402 kts 283°
2026-04-27 10:01 -32.92667 123.21969 36106 ft 402 kts 283°
2026-04-27 10:01 -32.91679 123.15419 36103 ft 402 kts 283°
2026-04-27 10:02 -32.90687 123.08872 36099 ft 402 kts 283°
2026-04-27 10:02 -32.89692 123.02328 36094 ft 402 kts 283°
2026-04-27 10:03 -32.88693 122.95786 36101 ft 402 kts 283°
2026-04-27 10:03 -32.87691 122.89247 36094 ft 402 kts 283°
2026-04-27 10:04 -32.86692 122.82751 36091 ft 402 kts 283°
2026-04-27 10:04 -32.85683 122.76214 36094 ft 402 kts 283°
2026-04-27 10:05 -32.84670 122.69674 36090 ft 402 kts 283°
2026-04-27 10:05 -32.83655 122.63143 36089 ft 402 kts 283°
2026-04-27 10:06 -32.82636 122.56612 36090 ft 402 kts 283°
2026-04-27 10:06 -32.81613 122.50078 36088 ft 402 kts 283°
2026-04-27 10:07 -32.80586 122.43539 36092 ft 403 kts 283°
2026-04-27 10:07 -32.79553 122.36989 36084 ft 403 kts 283°
2026-04-27 10:08 -32.78516 122.30433 36086 ft 403 kts 283°
2026-04-27 10:08 -32.77476 122.23879 36087 ft 403 kts 283°
2026-04-27 10:09 -32.76432 122.17329 36084 ft 403 kts 283°
2026-04-27 10:09 -32.75385 122.10781 36089 ft 403 kts 283°
2026-04-27 10:10 -32.74336 122.04242 36088 ft 403 kts 283°
2026-04-27 10:10 -32.73283 121.97697 36082 ft 403 kts 283°
2026-04-27 10:11 -32.72234 121.91199 36082 ft 403 kts 283°
2026-04-27 10:11 -32.71243 121.84645 36084 ft 404 kts 280°
2026-04-27 10:12 -32.70544 121.78018 36080 ft 404 kts 278°
2026-04-27 10:12 -32.69895 121.71394 36080 ft 404 kts 279°
2026-04-27 10:13 -32.69227 121.64776 36076 ft 404 kts 279°
2026-04-27 10:13 -32.68542 121.58163 36074 ft 403 kts 279°
2026-04-27 10:14 -32.67848 121.51549 36076 ft 403 kts 279°
2026-04-27 10:14 -32.67151 121.44955 36075 ft 403 kts 279°
2026-04-27 10:15 -32.66569 121.39470 36088 ft 403 kts 279°
2026-04-27 10:15 -32.65865 121.32871 36080 ft 403 kts 279°
2026-04-27 10:16 -32.65158 121.26275 36075 ft 402 kts 279°
2026-04-27 10:16 -32.64449 121.19691 36075 ft 402 kts 279°
2026-04-27 10:17 -32.63737 121.13111 36072 ft 402 kts 279°
2026-04-27 10:17 -32.63022 121.06539 36082 ft 401 kts 279°
2026-04-27 10:18 -32.62304 120.99977 36077 ft 401 kts 279°
2026-04-27 10:18 -32.61589 120.93465 36073 ft 401 kts 279°
2026-04-27 10:19 -32.60865 120.86907 36074 ft 400 kts 279°
2026-04-27 10:19 -32.60139 120.80361 36077 ft 400 kts 279°
2026-04-27 10:20 -32.59409 120.73816 36077 ft 400 kts 279°
2026-04-27 10:20 -32.58676 120.67269 36074 ft 400 kts 279°
2026-04-27 10:21 -32.57939 120.60723 36075 ft 400 kts 279°
2026-04-27 10:21 -32.57200 120.54186 36073 ft 401 kts 279°
2026-04-27 10:22 -32.56456 120.47639 36074 ft 401 kts 279°
2026-04-27 10:22 -32.55709 120.41092 36077 ft 401 kts 279°
2026-04-27 10:23 -32.54962 120.34585 36076 ft 401 kts 279°
2026-04-27 10:23 -32.54208 120.28034 36073 ft 401 kts 279°
2026-04-27 10:24 -32.53449 120.21478 36074 ft 402 kts 279°
2026-04-27 10:24 -32.52687 120.14924 36077 ft 402 kts 279°
2026-04-27 10:25 -32.51920 120.08364 36074 ft 402 kts 279°
2026-04-27 10:25 -32.51149 120.01795 36073 ft 402 kts 279°
2026-04-27 10:26 -32.50376 119.95238 36073 ft 402 kts 279°
2026-04-27 10:26 -32.49599 119.88669 36073 ft 402 kts 279°
2026-04-27 10:27 -32.48819 119.82109 36069 ft 402 kts 279°
2026-04-27 10:27 -32.48034 119.75552 36072 ft 402 kts 279°
2026-04-27 10:28 -32.47247 119.69009 36068 ft 401 kts 279°
2026-04-27 10:28 -32.46457 119.62468 36071 ft 401 kts 279°
2026-04-27 10:29 -32.45665 119.55935 36067 ft 400 kts 279°
2026-04-27 10:29 -32.44871 119.49415 36064 ft 400 kts 279°
2026-04-27 10:30 -32.44081 119.42954 36061 ft 399 kts 279°
2026-04-27 10:30 -32.43285 119.36467 36064 ft 398 kts 279°
2026-04-27 10:31 -32.42486 119.29993 36062 ft 397 kts 279°
2026-04-27 10:31 -32.41687 119.23543 36063 ft 396 kts 279°
2026-04-27 10:32 -32.40885 119.17097 36056 ft 396 kts 279°
2026-04-27 10:32 -32.40081 119.10660 36066 ft 395 kts 279°
2026-04-27 10:33 -32.39275 119.04232 36057 ft 395 kts 279°
2026-04-27 10:33 -32.38466 118.97812 36057 ft 394 kts 279°
2026-04-27 10:34 -32.37654 118.91396 36052 ft 394 kts 279°
2026-04-27 10:34 -32.36839 118.84984 36057 ft 394 kts 279°
2026-04-27 10:35 -32.36022 118.78578 36050 ft 394 kts 279°
2026-04-27 10:35 -32.35201 118.72166 36056 ft 394 kts 279°
2026-04-27 10:36 -32.34380 118.65770 36054 ft 394 kts 279°
2026-04-27 10:36 -32.33718 118.59376 36041 ft 395 kts 272°
2026-04-27 10:37 -32.33914 118.52873 36049 ft 396 kts 270°
2026-04-27 10:37 -32.34143 118.46369 36056 ft 396 kts 270°
2026-04-27 10:38 -32.34353 118.39860 36046 ft 396 kts 270°
2026-04-27 10:38 -32.34551 118.33348 36047 ft 396 kts 270°
2026-04-27 10:39 -32.34744 118.26837 36045 ft 397 kts 270°
2026-04-27 10:39 -32.34933 118.20318 36048 ft 397 kts 270°
2026-04-27 10:40 -32.35119 118.13772 35719 ft 403 kts 271°
2026-04-27 10:40 -32.35211 118.10457 35237 ft 403 kts 271°
2026-04-27 10:40 -32.35303 118.07190 34639 ft 403 kts 271°
2026-04-27 10:41 -32.35395 118.03837 34002 ft 404 kts 271°
2026-04-27 10:41 -32.35487 118.00497 33265 ft 406 kts 271°
2026-04-27 10:41 -32.35577 117.97160 32572 ft 408 kts 271°
2026-04-27 10:41 -32.35666 117.93853 32070 ft 405 kts 271°
2026-04-27 10:42 -32.35755 117.90533 31565 ft 403 kts 271°
2026-04-27 10:42 -32.35842 117.87233 31080 ft 400 kts 271°
2026-04-27 10:42 -32.35928 117.83959 30598 ft 398 kts 271°
2026-04-27 10:42 -32.36012 117.80683 30110 ft 397 kts 271°
2026-04-27 10:43 -32.36095 117.77433 29560 ft 395 kts 271°
2026-04-27 10:43 -32.36177 117.74198 29051 ft 392 kts 271°
2026-04-27 10:43 -32.36258 117.70986 28553 ft 389 kts 271°
2026-04-27 10:43 -32.36323 117.67797 28070 ft 386 kts 274°
2026-04-27 10:44 -32.36108 117.64657 27581 ft 381 kts 281°
2026-04-27 10:44 -32.35500 117.61622 27087 ft 378 kts 287°
2026-04-27 10:44 -32.34773 117.58642 26606 ft 376 kts 287°
2026-04-27 10:44 -32.34050 117.55706 26096 ft 376 kts 287°
2026-04-27 10:45 -32.33322 117.52742 25611 ft 375 kts 287°
2026-04-27 10:45 -32.32600 117.49782 25154 ft 374 kts 287°
2026-04-27 10:45 -32.31884 117.46834 24670 ft 373 kts 287°
2026-04-27 10:45 -32.31171 117.43886 24202 ft 372 kts 287°
2026-04-27 10:46 -32.30462 117.40951 23733 ft 372 kts 287°
2026-04-27 10:46 -32.29752 117.38013 23204 ft 371 kts 287°
2026-04-27 10:46 -32.29045 117.35087 22699 ft 369 kts 287°
2026-04-27 10:46 -32.28341 117.32176 22225 ft 367 kts 287°
2026-04-27 10:47 -32.27640 117.29283 21757 ft 365 kts 287°
2026-04-27 10:47 -32.26943 117.26406 21288 ft 363 kts 287°
2026-04-27 10:47 -32.26249 117.23544 20841 ft 362 kts 287°
2026-04-27 10:47 -32.25556 117.20695 20384 ft 360 kts 287°
2026-04-27 10:48 -32.24865 117.17851 19906 ft 360 kts 287°
2026-04-27 10:48 -32.24172 117.15007 19446 ft 359 kts 287°
2026-04-27 10:48 -32.23482 117.12177 18927 ft 360 kts 287°
2026-04-27 10:48 -32.22796 117.09362 18425 ft 362 kts 287°
2026-04-27 10:49 -32.22098 117.06506 17873 ft 361 kts 287°
2026-04-27 10:49 -32.21411 117.03694 17406 ft 353 kts 287°
2026-04-27 10:49 -32.20738 117.00940 16956 ft 347 kts 287°
2026-04-27 10:49 -32.20071 116.98218 16527 ft 345 kts 287°
2026-04-27 10:50 -32.19404 116.95496 16093 ft 344 kts 287°
2026-04-27 10:50 -32.18740 116.92795 15669 ft 342 kts 287°
2026-04-27 10:50 -32.18003 116.90137 15236 ft 340 kts 295°
2026-04-27 10:50 -32.16732 116.87817 14826 ft 337 kts 307°
2026-04-27 10:51 -32.15281 116.85642 14377 ft 336 kts 308°
2026-04-27 10:51 -32.13830 116.83514 13953 ft 331 kts 308°
2026-04-27 10:51 -32.12395 116.81399 13497 ft 329 kts 308°
2026-04-27 10:51 -32.10977 116.79291 13066 ft 327 kts 308°
2026-04-27 10:52 -32.09571 116.77188 12639 ft 326 kts 308°
2026-04-27 10:52 -32.08177 116.75093 12225 ft 324 kts 308°
2026-04-27 10:52 -32.06791 116.73007 11801 ft 322 kts 308°
2026-04-27 10:52 -32.05414 116.70932 11392 ft 320 kts 308°
2026-04-27 10:53 -32.04043 116.68868 10993 ft 319 kts 308°
2026-04-27 10:53 -32.01349 116.64819 10506 ft 306 kts 308°
2026-04-27 10:53 -32.00055 116.62876 10371 ft 297 kts 308°
2026-04-27 10:54 -31.98800 116.60990 10241 ft 288 kts 308°
2026-04-27 10:54 -31.97581 116.59160 10116 ft 280 kts 308°
2026-04-27 10:54 -31.96394 116.57380 9998 ft 272 kts 308°
2026-04-27 10:54 -31.95231 116.55637 9697 ft 271 kts 308°
2026-04-27 10:55 -31.94111 116.53868 9389 ft 269 kts 303°
2026-04-27 10:55 -31.93135 116.51997 9110 ft 267 kts 301°
2026-04-27 10:55 -31.92199 116.50111 8817 ft 266 kts 300°
2026-04-27 10:55 -31.91267 116.48236 8532 ft 265 kts 301°
2026-04-27 10:56 -31.90346 116.46400 8248 ft 263 kts 301°
2026-04-27 10:56 -31.89411 116.44555 7965 ft 262 kts 301°
2026-04-27 10:56 -31.88476 116.42722 7689 ft 261 kts 301°
2026-04-27 10:56 -31.87543 116.40900 7408 ft 259 kts 302°
2026-04-27 10:57 -31.86613 116.39086 7129 ft 258 kts 302°
2026-04-27 10:57 -31.85687 116.37281 6883 ft 257 kts 302°
2026-04-27 10:57 -31.84752 116.35459 6658 ft 257 kts 302°
2026-04-27 10:57 -31.83840 116.33683 6436 ft 258 kts 302°
2026-04-27 10:58 -31.82950 116.31949 6199 ft 257 kts 302°
2026-04-27 10:58 -31.82027 116.30154 5971 ft 256 kts 302°
2026-04-27 10:58 -31.81111 116.28372 5743 ft 254 kts 302°
2026-04-27 10:58 -31.80201 116.26605 5517 ft 251 kts 302°
2026-04-27 10:59 -31.79321 116.24849 5300 ft 248 kts 297°
2026-04-27 10:59 -31.78749 116.22945 5094 ft 246 kts 287°
2026-04-27 10:59 -31.78322 116.21009 4873 ft 243 kts 286°
2026-04-27 11:00 -31.77484 116.17175 4470 ft 244 kts 287°
2026-04-27 11:00 -31.77041 116.15235 4273 ft 248 kts 287°
2026-04-27 11:00 -31.76585 116.13268 4056 ft 251 kts 287°
2026-04-27 11:00 -31.76122 116.11286 3818 ft 253 kts 288°
2026-04-27 11:01 -31.75677 116.09295 3528 ft 248 kts 281°
2026-04-27 11:01 -31.75825 116.07341 3342 ft 238 kts 250°
2026-04-27 11:01 -31.76612 116.05700 3172 ft 224 kts 234°
2026-04-27 11:01 -31.77527 116.04289 3013 ft 212 kts 232°
2026-04-27 11:02 -31.78425 116.02937 2847 ft 209 kts 232°
2026-04-27 11:02 -31.79324 116.01575 2642 ft 212 kts 232°
2026-04-27 11:02 -31.80417 116.00461 2488 ft 207 kts 198°
2026-04-27 11:02 -31.81779 116.00093 2413 ft 205 kts 189°
2026-04-27 11:03 -31.83196 115.99683 2265 ft 207 kts 192°
2026-04-27 11:03 -31.84563 115.99275 2186 ft 197 kts 191°
2026-04-27 11:03 -31.85841 115.98957 2050 ft 176 kts 177°
2026-04-27 11:03 -31.86985 115.99061 1738 ft 164 kts 188°
2026-04-27 11:04 -31.87933 115.98409 1407 ft 157 kts 198°
2026-04-27 11:04 -31.88603 115.98128 1151 ft 155 kts 191°
2026-04-27 11:04 -31.89970 115.97705 774 ft 142 kts 197°
2026-04-27 11:04 -31.90903 115.97428 423 ft 135 kts 196°
2026-04-27 11:05 -31.91806 115.97148 331 ft 139 kts 192°
2026-04-27 11:05 -31.92788 115.96867 230 ft 148 kts 195°
2026-04-27 11:05 -31.93781 115.96578 61 ft 142 kts 194°
2026-04-27 11:05 -31.94555 115.96353 63 ft 84 kts 194°
2026-04-27 11:06 -31.94802 115.96282 64 ft 40 kts 193°
2026-04-27 11:06 -31.95001 115.96229 64 ft 18 kts 178°
2026-04-27 11:06 -31.95062 115.96258 61 ft 10 kts 140°
2026-04-27 11:06 -31.95094 115.96331 62 ft 11 kts 106°
2026-04-27 11:07 -31.95114 115.96417 58 ft 11 kts 104°
2026-04-27 11:07 -31.95123 115.96506 63 ft 11 kts 72°
2026-04-27 11:07 -31.95062 115.96556 65 ft 12 kts 16°
2026-04-27 11:07 -31.94980 115.96580 60 ft 13 kts 14°
2026-04-27 11:08 -31.94890 115.96607 67 ft 14 kts 14°
2026-04-27 11:08 -31.94795 115.96635 66 ft 13 kts 13°
2026-04-27 11:08 -31.94706 115.96660 62 ft 14 kts 13°
2026-04-27 11:08 -31.94614 115.96686 62 ft 13 kts 10°
2026-04-27 11:09 -31.94524 115.96713 64 ft 14 kts 15°
2026-04-27 11:09 -31.94429 115.96741 67 ft 15 kts 14°
2026-04-27 11:09 -31.94336 115.96768 65 ft 13 kts 14°
2026-04-27 11:09 -31.94247 115.96794 58 ft 12 kts 14°
2026-04-27 11:10 -31.94191 115.96840 66 ft 8 kts 77°
2026-04-27 11:10 -31.94201 115.96911 64 ft 9 kts 104°
2026-04-27 11:10 -31.94214 115.96976 64 ft 8 kts 104°
2026-04-27 11:10 -31.94224 115.97028 64 ft 7 kts 98°
2026-04-27 11:11 -31.94215 115.97076 63 ft 6 kts 53°
2026-04-27 11:11 -31.94183 115.97098 60 ft 0 kts 20°
2026-04-27 11:11 -31.94181 115.97099 59 ft 1 kts 23°
2026-04-27 11:11 -31.94175 115.97102 61 ft 0 kts 24°
2026-04-27 11:12 -31.94173 115.97103 62 ft 0 kts 23°